[[{"header":{"parameterUnit":"m.s-1","parameterCategory":1,"la1":30.2992,"la2":30.254,"lo1":-89.0895,"lo2":-89.0443,"dy":0.0025,"dx":0.0025,"nx":19,"ny":19,"refTime":"2026-05-08T09:00:00:Z","depth":0,"parameterNumber":2,"parameterNumberName":"U-component_of_WINDS"},"data":[0,0,0,0.0898,0.0898,0.0913,0.0913,0.0938,0.0938,0,0,0,0,0,0,0,0,0,0,0,0.0897,0.0897,0.0897,0.0898,0.0913,0.0913,0.0938,0.0938,0,0,0,0,0,0,0,0,0,0,0,0.0896,0.0897,0.0897,0.0898,0.0913,0.0913,0.0938,0.0924,0,0,0,0,0,0,0,0,0,0,0.0909,0.0911,0.0897,0.0897,0.0898,0.0913,0.0913,0.0924,0.0925,0.0933,0,0.0941,0,0.094,0.094,0.094,0,0,0,0.0896,0.091,0.0911,0.0897,0.0898,0.0913,0.0905,0.0924,0.0926,0.0935,0.0942,0.0942,0.094,0.094,0.094,0.0994,0.0994,0,0,0.0895,0.0901,0.091,0.0912,0.091,0.0905,0.0906,0.0925,0.0933,0.0942,0.0943,0.0941,0.094,0.0941,0.0994,0.0994,0,0,0,0.0894,0.0901,0.0901,0.0911,0.0914,0.0906,0.0907,0.0932,0.0931,0.0943,0.0941,0.094,0.0941,0.0993,0.0994,0.1018,0,0,0,0.0893,0.09,0.0901,0.0905,0.0913,0.0923,0.0913,0.093,0.0932,0.0941,0.094,0.0941,0.0993,0.0993,0.1016,0.1028,0,0,0,0.0894,0.09,0.0904,0.0905,0.0912,0.0923,0.0923,0.093,0.0931,0.094,0.0941,0.0993,0.0993,0.1015,0.1026,0.1043,0,0,0,0.0898,0.0926,0.0904,0.0935,0.0912,0.0937,0.0923,0.0942,0.0952,0.0941,0.0993,0.0994,0.1014,0.1024,0.1042,0.1059,0.1067,0,0,0.0937,0.0931,0.0948,0.0929,0.096,0.0934,0.0968,0.0972,0.0968,0.0985,0.0987,0.1017,0.1026,0.1043,0.1109,0.1115,0,0,0,0.0963,0.0975,0.0982,0.0992,0.0995,0.0998,0.0996,0.0997,0.1012,0.0978,0.1028,0.1033,0.1043,0.1051,0.1056,0.1064,0.0998,0.0998,0.0998,0.1028,0.1019,0.1047,0.104,0.105,0.1046,0.1053,0.1054,0.1043,0.1055,0.106,0.1101,0.1111,0.1115,0.1123,0.1069,0.1069,0.1069,0.1069,0.1084,0.11,0.1084,0.1105,0.1095,0.1112,0.111,0.1101,0.1116,0.1097,0.1105,0.1086,0.1122,0.1128,0.1071,0.1071,0.107,0.107,0.107,0.1126,0.1132,0.1132,0.1144,0.1155,0.1146,0.1161,0.1152,0.1143,0.1152,0.1155,0.1155,0.1153,0.1154,0.1154,0.1154,0.1154,0.1154,0.1155,0.1169,0.1168,0.1181,0.1185,0.119,0.1194,0.119,0.1194,0.1196,0.1188,0.1188,0.1176,0.1127,0.1115,0.1157,0.1156,0.1156,0.1156,0.1156,0.1229,0.1213,0.1233,0.1237,0.1241,0.1251,0.1239,0.1247,0.1249,0.1256,0.1242,0.1207,0.1201,0.1196,0.1186,0.1244,0.1244,0.1244,0.1244,0.1263,0.1259,0.1276,0.1283,0.1289,0.1279,0.1301,0.1298,0.1292,0.1292,0.1282,0.1268,0.1264,0.126,0.1254,0.1244,0.1316,0.1316,0.1316,0.1299,0.1294,0.1315,0.1308,0.1309,0.1311,0.1331,0.1339,0.1329,0.1318,0.1292,0.1289,0.1266,0.1259,0.1248,0.1239,0.1221,0,0]},{"header":{"parameterUnit":"m.s-1","parameterCategory":1,"la1":30.2992,"la2":30.254,"lo1":-89.0895,"lo2":-89.0443,"dy":0.0025,"dx":0.0025,"nx":19,"ny":19,"refTime":"2026-05-08T09:00:00:Z","depth":0,"parameterNumber":3,"parameterNumberName":"V-component_of_WINDS"},"data":[0,0,0,4.5369,4.5374,4.5593,4.5594,4.5862,4.5865,0,0,0,0,0,0,0,0,0,0,0,4.5302,4.5303,4.5369,4.5374,4.5593,4.5594,4.5862,4.5865,0,0,0,0,0,0,0,0,0,0,0,4.5301,4.5303,4.5305,4.5375,4.5593,4.5594,4.5861,4.5699,0,0,0,0,0,0,0,0,0,0,4.5488,4.5424,4.5302,4.5305,4.5376,4.5593,4.5594,4.5692,4.5709,4.576,0,4.5807,0,4.5841,4.5882,4.5883,0,0,0,4.5375,4.541,4.5471,4.5306,4.5378,4.5592,4.5495,4.5702,4.5722,4.5783,4.5811,4.5821,4.5845,4.5884,4.5885,4.6181,4.6182,0,0,4.5363,4.5339,4.5458,4.5484,4.5455,4.5488,4.5501,4.5714,4.5741,4.5812,4.5828,4.5849,4.5886,4.5888,4.6179,4.6181,0,0,0,4.5328,4.533,4.5387,4.5473,4.5514,4.5494,4.551,4.5732,4.5753,4.5831,4.5853,4.5887,4.5891,4.6178,4.618,4.6224,0,0,0,4.532,4.531,4.5382,4.5369,4.551,4.5627,4.5523,4.5738,4.5763,4.5851,4.5887,4.5893,4.6177,4.6179,4.6219,4.6248,0,0,0,4.5288,4.5306,4.5337,4.5367,4.5461,4.5624,4.5657,4.5744,4.5776,4.5884,4.5894,4.6176,4.6179,4.6216,4.6242,4.6319,0,0,0,4.5245,4.5372,4.5337,4.5486,4.5459,4.565,4.5656,4.5799,4.5896,4.5889,4.6177,4.618,4.6215,4.6238,4.6315,4.638,4.6405,0,0,4.5391,4.5388,4.5477,4.5453,4.5645,4.5619,4.5815,4.5926,4.5956,4.6103,4.611,4.6221,4.6242,4.6318,4.6552,4.6572,0,0,0,4.5515,4.5579,4.5635,4.5728,4.5818,4.5895,4.5979,4.6019,4.6145,4.6028,4.627,4.6283,4.6329,4.6361,4.6378,4.6418,4.6194,4.6193,4.6193,4.5685,4.572,4.5869,4.593,4.6019,4.6104,4.6179,4.6247,4.6254,4.631,4.6354,4.6493,4.6529,4.6542,4.6584,4.6391,4.6391,4.6391,4.6391,4.5901,4.5996,4.6003,4.6151,4.6185,4.6308,4.6392,4.6393,4.651,4.6463,4.6504,4.645,4.6563,4.6601,4.6395,4.6394,4.6394,4.6394,4.6393,4.6016,4.6068,4.6117,4.6255,4.6356,4.6411,4.6524,4.655,4.6574,4.6616,4.6664,4.6663,4.6666,4.6637,4.6637,4.6638,4.6638,4.6639,4.6639,4.6117,4.6171,4.6265,4.637,4.6432,4.6518,4.6602,4.6663,4.6737,4.6746,4.6747,4.6746,4.6568,4.6523,4.6647,4.6645,4.6644,4.6644,4.6643,4.6324,4.6281,4.6426,4.6489,4.6613,4.6711,4.6742,4.6864,4.6917,4.6971,4.6962,4.6826,4.6824,4.6811,4.6774,4.6955,4.6955,4.6955,4.6955,4.6421,4.6424,4.6577,4.6676,4.6775,4.6818,4.6976,4.7042,4.7102,4.7136,4.7113,4.7066,4.7051,4.7058,4.7039,4.7005,4.7241,4.7241,4.7242,4.655,4.6563,4.6695,4.6757,4.6855,4.6938,4.7087,4.7196,4.7255,4.7254,4.7163,4.7151,4.7075,4.7048,4.7046,4.7017,4.6954,0,0]}]]